Погода в Шапше

Россия / Ханты-Мансийский автономный округ - Югра     61°05′23″N   69°27′38″E
темп.,
°C
ветер,
м/с
пор.,
м/с
влажн.,
%
обл.,
%
осадки,
мм/ч
давл.,
гПа
погр.,
м
12 апреля, пн
пн1223:00+5зюз51399100 1.3 1023460
02:00+4з51199100 0.0 1024548
05:00+1з41194100 0.0 1026283
08:00+2з410915 0.0 1026375
11:00+4з59825 0.0 1027576
14:00+6зсз611725 0.0 10281165
17:00+6зсз611695 0.0 10291105
20:00+2з412804 0.0 1031300
13 апреля, вт
вт1323:00+1з514815 0.0 1032418
02:00+1зсз5138768 0.0 1032444
05:000з51192100 0.0 1033365
08:00+2з51186100 0.0 1033555
11:00+5з6127393 0.0 1032774
14:00+7з71263100 0.0 10311338
17:00+5з51374100 0.0 1030651
20:00+5зюз51478100 0.0 1029387
14 апреля, ср
ср1423:00+4зюз41379100 0.0 1027323
02:00+4зюз51474100 0.0 1024355
05:00+4зюз51479100 0.0 1022406
08:00+4з51380100 0.1 1021509
11:00+4з41091100 0.2 1022382
14:00+6зсз3890100 0.0 1023328
17:00+6зюз259337 0.0 1023160
20:00+7ю3592100 0.0 102294
15 апреля, чт
чт1523:00+7юз41094100 0.0 1019215
02:00+8зюз5139193 0.0 1017373
05:00+7юз51491100 0.0 1015334
08:00+9зюз614795 0.0 1013442
11:00+14зюз8145945 0.0 1011823
14:00+16з8135658 0.0 10101581
17:00+8с7978100 0.6 1012593
20:00+3ссв3696100 2.2 1015320
16 апреля, пт
пт1623:00+3сз2495100 3.2 1016444
02:000св5874100 0.6 1019614
05:00−3св586699 0.6 1021702
08:00−4св6848100 0.0 1023895
11:00−3св6732100 0.0 10251054
14:00−2св672899 0.0 10251191
17:00−3всв6833100 0.0 10241176
20:00−5всв61035100 0.0 10241022